Regional Weather Roundup
Issued by NWS Jackson, KY

Home | Current Version | Previous Version | Text Only | Print | Product List | Glossary Off
Versions: 1 2 3 4 5 6 7 8 9 10 11 12 13 14 15 16 17 18 19 20 21 22 23 24 25 26 27 28 29 30 31 32 33 34 35 36 37 38 39 40 41 42 43 44 45 46 47 48 49 50

000
ASUS43 KJKL 221210
RWRJKL

EAST KENTUCKY HOURLY WEATHER ROUNDUP
NATIONAL WEATHER SERVICE JACKSON KY
700 AM EST SUN JAN 22 2017

NOTE: "FAIR" INDICATES FEW OR NO CLOUDS BELOW 12,000 FEET WITH
NO SIGNIFICANT WEATHER AND/OR OBSTRUCTIONS TO VISIBILITY.

* THESE REPORTS ARE NOT UNDER NWS QUALITY CONTROL AND MAY NOT
  REPORT WEATHER SUCH AS PRECIPITATION AND FOG.

KYZ079-080-083-085-087-088-110-112-115-119-120-221300
...EASTERN KENTUCKY...

CITY           SKY/WX    TMP DP  RH WIND       PRES   REMARKS
JACKSON        PTCLDY    50  48  93 NE3       29.56F FOG
6HR MIN TEMP:  49; 6HR MAX TEMP:  55;

LONDON         MOCLDY    46  43  89 CALM      29.53F
6HR MIN TEMP:  43; 6HR MAX TEMP:  46;

SOMERSET*      MOCLDY    46  46 100 E3        29.53F
MONTICELLO*    CLOUDY    51  48  89 E5        29.53F
6HR MIN TEMP:  43; 6HR MAX TEMP:  51;

WILLIAMSBURG*  PTSUNNY   46  46 100 E3        29.52F
MIDDLESBORO*   CLOUDY    43  43 100 CALM      29.55F
6HR MIN TEMP:  42; 6HR MAX TEMP:  43;

HARLAN APT*    CLOUDY    45  45 100 CALM      29.57F VSB 1/4
PIKE CO APT*     N/A     49  49 100 E3        29.58F
BIG SANDY APT* CLOUDY    49  49 100 CALM      29.59
6HR MIN TEMP:  46; 6HR MAX TEMP:  52;

MOREHEAD APT*  MOSUNNY   52  48  87 CALM      29.60R
ASHLAND*       CLOUDY    43  41  93 CALM      29.58F VSB 1/2
$$

KYZ035-036-041-042-044-050-067-078-099-221300
...CENTRAL KENTUCKY...

CITY           SKY/WX    TMP DP  RH WIND       PRES   REMARKS
MT STERLING*   PTCLDY    46  46 100 SE5       29.59S
FLEMING/MASON* CLOUDY    47  47  99 E5        29.60S FOG
DANVILLE*      CLOUDY    45  45 100 E3        29.55F FOG
LEXINGTON      PTCLDY    50  47  89 E7        29.56F
6HR MIN TEMP:  47; 6HR MAX TEMP:  55;

FRANKFORT      CLOUDY    47  44  90 E5        29.55S
6HR MIN TEMP:  44; 6HR MAX TEMP:  49;

LOUISVILLE     CLOUDY    48  45  89 CALM      29.54S
6HR MIN TEMP:  47; 6HR MAX TEMP:  54;

LEBANON*         N/A     50  48  93 NE6       29.53F
GLASGOW*       MOCLDY    52  48  87 NE5       29.50S
BOWLING GREEN  CLOUDY    51  48  89 CALM      29.49F
6HR MIN TEMP:  49; 6HR MAX TEMP:  55;

$$

KYZ091>093-OHZ055-061-077-WVZ005-015-034-035-042-221300
...SOUTHERN OHIO/WEST VIRGINIA...

CITY           SKY/WX    TMP DP  RH WIND       PRES   REMARKS
COVINGTON      CLOUDY    49  48  97 E5        29.58R
COLUMBUS       MOCLDY    46  45  96 CALM      29.61R
DAYTON         PTCLDY    44  44 100 NE6       29.61R FOG
WILMINGTON     CLOUDY    44  43  96 E5        29.60R FOG
HUNTINGTON     FOG       45  44  97 CALM      29.59S VSB 1
CHARLESTON     PTCLDY    45  44  97 CALM      29.60F
PINEVILLE*     MOCLDY    43  39  87 MISG      29.67F FOG
BECKLEY        PTCLDY    50  47  89 SE8       29.64S
BLUEFIELD      CLOUDY    48  47  96 SE7       29.64F
LOGAN CO APT*    N/A     52  48  87 CALM      29.60F
$$

VAZ002-007-008-TNZ017-027-036-066-071-221300
...SOUTHWEST VIRGINIA/EAST TENNESSEE...

CITY           SKY/WX    TMP DP  RH WIND       PRES   REMARKS
WISE*          CLOUDY    50  50 100 CALM      29.61S
JONESVILLE*      N/A     45  45 100 CALM      29.60S
ABINGDON*      CLOUDY    51  51 100 E9        29.61F
BRISTOL        CLOUDY    49  47  93 NE3       29.61R
MORRISTOWN*    PTSUNNY   52  52 100 E7        29.50F
SEVIERVILLE*   SUNNY     46  46 100 SE5       29.50F
KNOXVILLE      CLOUDY    51  49  92 NE8       29.47F
LAFOLLETTE*    CLOUDY    46  45  93 CALM      29.54F FOG
OAK RIDGE      LGT RAIN  49  47  93 CALM      29.51F
CROSSVILLE     RAIN      52  50  93 SE6       29.50S
NASHVILLE      CLOUDY    53  49  86 N8        29.46F
$$

...KEY TO REMARKS...
VSB - VISIBILITY IN MILES
WCI - WIND CHILL INDEX
HX  - HEAT INDEX

$$



USA.gov is the U.S. government's official web portal to all federal, state and local government web resources and services.